SPJAN EPKK-EPKK

Flight info

Callsign SPJAN
Flight time 0h 33m
Altitude 2000
Route EPKK/25 DCT
Aircraft DA40/L-SFG/C

Departure

Time 2026-05-04 18:25
Airport Kraków John Paul II International Airport (EPKK)

Arrival

Time 2026-05-04 18:58
Airport Kraków John Paul II International Airport (EPKK)
Time Latitude Longitude Altitude Speed Heading
2026-05-04 18:03 50.07704 19.80161 784 ft 0 kts 348°
2026-05-04 18:19 50.07746 19.80153 784 ft 1 kts 17°
2026-05-04 18:19 50.07756 19.80168 784 ft 2 kts 63°
2026-05-04 18:19 50.07767 19.80224 784 ft 8 kts 72°
2026-05-04 18:20 50.07776 19.80301 785 ft 8 kts 84°
2026-05-04 18:20 50.07782 19.80334 785 ft 0 kts 57°
2026-05-04 18:20 50.07790 19.80345 785 ft 1 kts 26°
2026-05-04 18:20 50.07815 19.80345 785 ft 2 kts 348°
2026-05-04 18:21 50.07847 19.80334 785 ft 0 kts 349°
2026-05-04 18:23 50.07871 19.80326 785 ft 9 kts 346°
2026-05-04 18:23 50.07957 19.80296 784 ft 8 kts 346°
2026-05-04 18:23 50.08003 19.80265 784 ft 4 kts 314°
2026-05-04 18:23 50.08015 19.80220 784 ft 4 kts 272°
2026-05-04 18:24 50.08009 19.80167 784 ft 5 kts 256°
2026-05-04 18:24 50.07969 19.79879 783 ft 55 kts 258°
2026-05-04 18:24 50.07856 19.79077 824 ft 90 kts 257°
2026-05-04 18:24 50.07720 19.78055 989 ft 101 kts 259°
2026-05-04 18:25 50.07582 19.76936 1103 ft 113 kts 260°
2026-05-04 18:25 50.07146 19.76019 1296 ft 114 kts 194°
2026-05-04 18:25 50.06528 19.76693 1306 ft 129 kts 98°
2026-05-04 18:25 50.06589 19.78040 1497 ft 117 kts 86°
2026-05-04 18:26 50.06480 19.79263 1511 ft 116 kts 105°
2026-05-04 18:26 50.06222 19.80466 1583 ft 118 kts 116°
2026-05-04 18:26 50.05637 19.81282 1677 ft 117 kts 167°
2026-05-04 18:26 50.04934 19.80816 1687 ft 120 kts 242°
2026-05-04 18:27 50.05055 19.79600 1680 ft 124 kts 300°
2026-05-04 18:27 50.05111 19.78324 1602 ft 122 kts 237°
2026-05-04 18:27 50.04368 19.78231 1405 ft 132 kts 130°
2026-05-04 18:27 50.04495 19.79505 1248 ft 129 kts 47°
2026-05-04 18:28 50.05262 19.79628 1181 ft 123 kts 319°
2026-05-04 18:28 50.05550 19.78449 1147 ft 116 kts 253°
2026-05-04 18:28 50.04850 19.78115 1046 ft 120 kts 161°
2026-05-04 18:28 50.04487 19.79132 1017 ft 118 kts 78°
2026-05-04 18:29 50.05033 19.79878 1085 ft 108 kts 360°
2026-05-04 18:29 50.05546 19.79131 1016 ft 114 kts 288°
2026-05-04 18:29 50.05473 19.78023 1036 ft 109 kts 212°
2026-05-04 18:29 50.04739 19.78207 1037 ft 107 kts 138°
2026-05-04 18:30 50.05206 19.79643 944 ft 111 kts 323°
2026-05-04 18:30 50.05653 19.78763 1006 ft 102 kts 282°
2026-05-04 18:30 50.05212 19.78125 976 ft 107 kts 182°
2026-05-04 18:31 50.04573 19.78561 964 ft 109 kts 110°
2026-05-04 18:31 50.04687 19.79654 1055 ft 102 kts 47°
2026-05-04 18:31 50.05298 19.79658 1108 ft 99 kts 317°
2026-05-04 18:31 50.05650 19.78709 1128 ft 100 kts 276°
2026-05-04 18:32 50.05240 19.78062 1086 ft 108 kts 179°
2026-05-04 18:32 50.04588 19.78502 1109 ft 107 kts 113°
2026-05-04 18:32 50.04719 19.79653 1059 ft 110 kts 45°
2026-05-04 18:32 50.05340 19.79477 1085 ft 106 kts 313°
2026-05-04 18:33 50.05656 19.78536 1133 ft 103 kts 260°
2026-05-04 18:33 50.05106 19.78073 1144 ft 107 kts 176°
2026-05-04 18:33 50.04524 19.78642 1220 ft 103 kts 112°
2026-05-04 18:33 50.04581 19.79715 1270 ft 102 kts 46°
2026-05-04 18:34 50.05229 19.79774 1193 ft 112 kts 325°
2026-05-04 18:34 50.05629 19.78733 1146 ft 115 kts 278°
2026-05-04 18:34 50.05268 19.77792 1203 ft 111 kts 195°
2026-05-04 18:34 50.04641 19.78358 1145 ft 119 kts 115°
2026-05-04 18:35 50.04673 19.79552 1223 ft 110 kts 56°
2026-05-04 18:35 50.05316 19.79708 1219 ft 111 kts 319°
2026-05-04 18:35 50.05672 19.78693 1224 ft 110 kts 273°
2026-05-04 18:35 50.05117 19.78060 1185 ft 113 kts 175°
2026-05-04 18:36 50.04548 19.78729 1200 ft 114 kts 98°
2026-05-04 18:36 50.04886 19.79768 1236 ft 109 kts 18°
2026-05-04 18:36 50.05546 19.79342 1160 ft 113 kts 309°
2026-05-04 18:36 50.05637 19.78211 1176 ft 111 kts 235°
2026-05-04 18:37 50.04954 19.78101 1187 ft 113 kts 143°
2026-05-04 18:37 50.04778 19.79150 1337 ft 102 kts 80°
2026-05-04 18:37 50.04990 19.80221 1381 ft 106 kts 66°
2026-05-04 18:37 50.05384 19.81188 1431 ft 108 kts 49°
2026-05-04 18:38 50.05946 19.81907 1457 ft 99 kts 24°
2026-05-04 18:38 50.06609 19.82121 1344 ft 96 kts
2026-05-04 18:38 50.07263 19.82034 1266 ft 92 kts 348°
2026-05-04 18:38 50.07833 19.81646 1146 ft 93 kts 320°
2026-05-04 18:39 50.08066 19.80637 951 ft 114 kts 261°
2026-05-04 18:39 50.07900 19.79439 880 ft 112 kts 260°
2026-05-04 18:39 50.07739 19.78271 942 ft 110 kts 259°
2026-05-04 18:39 50.07566 19.77109 1031 ft 108 kts 259°
2026-05-04 18:40 50.07330 19.76062 1204 ft 103 kts 222°
2026-05-04 18:40 50.06659 19.76012 1331 ft 105 kts 147°
2026-05-04 18:40 50.06404 19.77058 1383 ft 112 kts 90°
2026-05-04 18:40 50.06404 19.78280 1463 ft 113 kts 88°
2026-05-04 18:41 50.06447 19.79442 1419 ft 102 kts 86°
2026-05-04 18:41 50.06453 19.80509 1361 ft 99 kts 108°
2026-05-04 18:41 50.05925 19.80723 1405 ft 102 kts 238°
2026-05-04 18:41 50.06283 19.80208 1351 ft 115 kts 46°
2026-05-04 18:42 50.05962 19.80827 1484 ft 99 kts 218°
2026-05-04 18:42 50.05909 19.80197 1543 ft 98 kts 307°
2026-05-04 18:42 50.06507 19.80319 1518 ft 109 kts 69°
2026-05-04 18:42 50.06145 19.81094 1567 ft 95 kts 186°
2026-05-04 18:43 50.05883 19.80346 1496 ft 100 kts 311°
2026-05-04 18:43 50.06300 19.80739 1442 ft 100 kts 124°
2026-05-04 18:43 50.05750 19.80556 1466 ft 86 kts 224°
2026-05-04 18:43 50.05482 19.79654 1329 ft 105 kts 281°
2026-05-04 18:44 50.05622 19.78482 1234 ft 112 kts 259°
2026-05-04 18:44 50.05300 19.77884 1218 ft 113 kts 202°
2026-05-04 18:44 50.04435 19.78485 1271 ft 109 kts 119°
2026-05-04 18:44 50.04523 19.79558 1377 ft 106 kts 41°
2026-05-04 18:45 50.05248 19.79621 1295 ft 120 kts 330°
2026-05-04 18:45 50.05670 19.78579 1389 ft 114 kts 266°
2026-05-04 18:45 50.05114 19.77854 1453 ft 119 kts 177°
2026-05-04 18:45 50.04527 19.78688 1443 ft 128 kts 101°
2026-05-04 18:46 50.04934 19.79692 1618 ft 117 kts 14°
2026-05-04 18:46 50.05637 19.79227 1670 ft 121 kts 300°
2026-05-04 18:46 50.05555 19.77993 1698 ft 123 kts 230°
2026-05-04 18:46 50.04802 19.77662 1796 ft 123 kts 166°
2026-05-04 18:47 50.04162 19.78600 1763 ft 130 kts 111°
2026-05-04 18:47 50.04304 19.79820 1829 ft 122 kts 27°
2026-05-04 18:47 50.05269 19.79769 1520 ft 138 kts 335°
2026-05-04 18:47 50.05738 19.78670 1681 ft 125 kts 269°
2026-05-04 18:48 50.05284 19.77613 1768 ft 123 kts 208°
2026-05-04 18:48 50.04446 19.77627 1821 ft 125 kts 148°
2026-05-04 18:48 50.04189 19.78781 1945 ft 123 kts 75°
2026-05-04 18:48 50.04761 19.79747 1905 ft 129 kts
2026-05-04 18:49 50.05615 19.79396 1891 ft 125 kts 297°
2026-05-04 18:49 50.05387 19.78182 1832 ft 130 kts 205°
2026-05-04 18:49 50.04612 19.78626 1874 ft 127 kts 109°
2026-05-04 18:49 50.04999 19.79665 1761 ft 134 kts 358°
2026-05-04 18:50 50.05636 19.78630 1547 ft 138 kts 271°
2026-05-04 18:50 50.05024 19.77826 1630 ft 131 kts 171°
2026-05-04 18:50 50.04487 19.78844 1645 ft 131 kts 91°
2026-05-04 18:50 50.05068 19.79696 1692 ft 127 kts 355°
2026-05-04 18:51 50.05656 19.78764 1575 ft 134 kts 270°
2026-05-04 18:51 50.05004 19.78054 1565 ft 134 kts 168°
2026-05-04 18:51 50.04448 19.79089 1608 ft 131 kts 94°
2026-05-04 18:51 50.04881 19.80165 1749 ft 121 kts 13°
2026-05-04 18:52 50.05493 19.79494 1783 ft 122 kts 288°
2026-05-04 18:52 50.05263 19.78425 1900 ft 121 kts 202°
2026-05-04 18:52 50.04565 19.78921 1949 ft 125 kts 106°
2026-05-04 18:52 50.05027 19.79885 1900 ft 130 kts
2026-05-04 18:53 50.05656 19.79091 1999 ft 124 kts 280°
2026-05-04 18:53 50.05306 19.78031 2140 ft 120 kts 205°
2026-05-04 18:53 50.04521 19.78332 2167 ft 126 kts 128°
2026-05-04 18:53 50.04499 19.79586 2267 ft 125 kts 54°
2026-05-04 18:54 50.05289 19.80012 2249 ft 128 kts 342°
2026-05-04 18:54 50.05821 19.78997 2281 ft 127 kts 276°
2026-05-04 18:54 50.05426 19.77901 2374 ft 126 kts 203°
2026-05-04 18:54 50.04652 19.78283 2435 ft 127 kts 122°
2026-05-04 18:55 50.04757 19.79571 2465 ft 129 kts 48°
2026-05-04 18:55 50.06257 19.79293 2588 ft 125 kts 298°
2026-05-04 18:55 50.06228 19.78053 2711 ft 121 kts 229°
2026-05-04 18:56 50.05412 19.77829 2664 ft 132 kts 156°
2026-05-04 18:56 50.05022 19.78989 2664 ft 121 kts 83°
2026-05-04 18:56 50.05315 19.80282 2019 ft 137 kts 60°
2026-05-04 18:56 50.05830 19.81542 1587 ft 131 kts 54°
2026-05-04 18:57 50.06427 19.82412 1448 ft 109 kts 27°
2026-05-04 18:57 50.07134 19.82773 1285 ft 105 kts
2026-05-04 18:57 50.07810 19.82534 1156 ft 91 kts 327°
2026-05-04 18:57 50.08157 19.81850 1026 ft 80 kts 286°
2026-05-04 18:58 50.08126 19.80991 880 ft 83 kts 257°
2026-05-04 18:58 50.08007 19.80155 798 ft 72 kts 257°
2026-05-04 18:58 50.07916 19.79477 784 ft 56 kts 259°
2026-05-04 18:58 50.07845 19.79107 785 ft 17 kts 214°
2026-05-04 18:59 50.07789 19.79078 785 ft 6 kts 176°
2026-05-04 18:59 50.07774 19.79082 785 ft 0 kts 165°
2026-05-04 19:00 50.07763 19.79086 785 ft 7 kts 169°
2026-05-04 19:00 50.07674 19.79116 785 ft 15 kts 171°
2026-05-04 19:00 50.07618 19.79153 784 ft 2 kts 127°
2026-05-04 19:00 50.07621 19.79217 784 ft 10 kts 72°
2026-05-04 19:01 50.07643 19.79369 784 ft 17 kts 80°
2026-05-04 19:01 50.07670 19.79565 784 ft 20 kts 76°
2026-05-04 19:01 50.07694 19.79748 784 ft 18 kts 81°
2026-05-04 19:01 50.07706 19.79847 784 ft 0 kts 93°
2026-05-04 19:02 50.07683 19.79877 784 ft 10 kts 170°
2026-05-04 19:02 50.07622 19.79899 784 ft 4 kts 150°
2026-05-04 19:02 50.07607 19.79922 784 ft 5 kts 110°
2026-05-04 19:02 50.07618 19.80016 784 ft 10 kts 76°
2026-05-04 19:03 50.07633 19.80137 784 ft 12 kts 76°
2026-05-04 19:03 50.07651 19.80268 784 ft 7 kts 79°
2026-05-04 19:03 50.07661 19.80300 784 ft 3 kts 25°
2026-05-04 19:03 50.07682 19.80287 784 ft 1 kts 331°
2026-05-04 19:04 50.07718 19.80276 784 ft 0 kts 346°